WEATHER DATA

TODAY
Time Temp. Dewp. Hum. Bar.
00:07 9.3 3.3 66 1010.7
00:28 9.2 3.4 67 1010.7
00:38 9.2 3.4 67 1010.4
00:48 9.3 3.5 67 1010.4
00:58 9.4 3.6 67 1010.4
01:08 9.4 3.6 67 1010.4
01:18 9.5 3.7 67 1010.3
01:28 9.6 3.8 67 1010.2
01:38 9.6 3.6 66 1010.3
01:48 9.6 3.6 66 1010.5
01:58 9.6 3.6 66 1010.5
02:08 9.5 3.5 66 1010.4
02:19 9.4 3.6 67 1010.7
02:28 9.2 3.4 67 1010.8
02:38 9.1 3.5 68 1010.7
02:49 8.9 3.3 68 1010.8
02:59 8.7 3.3 69 1010.7
03:09 8.6 3.2 69 1010.8
03:19 8.6 3.4 70 1011
03:29 8.5 3.6 71 1010.8
03:39 8.5 3.6 71 1010.8
03:49 8.4 3.7 72 1010.9
03:59 8.4 3.7 72 1010.9
04:09 8.3 3.8 73 1010.9
04:19 8.2 3.8 74 1010.9
04:29 8.1 3.8 74 1011
04:40 8.1 3.9 75 1011.1
04:49 8 3.8 75 1011.3
04:59 7.9 3.9 76 1011.2
05:10 7.8 4 77 1011.5
05:20 7.6 3.8 77 1011.2
05:30 7.5 3.9 78 1011.4
05:39 7.4 4 79 1011.4
05:50 7.3 3.9 79 1011.5
06:00 7.2 4 80 1011.6
06:10 7.2 4 80 1011.5
06:20 7.2 4.2 81 1011.7
06:30 7.2 4.2 81 1011.7
06:40 7.2 4.3 82 1011.7
07:01 7.2 4.3 82 1011.7
07:10 7.2 4.3 82 1011.8
07:20 7.2 4.5 83 1011.9
07:31 7.3 4.6 83 1011.9
07:40 7.2 4.5 83 1012.2
07:51 7.2 4.5 83 1012.4
08:00 7.2 4.7 84 1012.6
08:11 7.2 4.7 84 1012.8
08:21 7.2 4.7 84 1012.9
08:31 7.2 4.7 84 1013
08:41 7.2 4.7 84 1013.1
08:51 7.2 4.7 84 1013.2
09:01 7.2 4.7 84 1013.3
09:11 7.2 4.7 84 1013.4
09:22 7.1 4.6 84 1013.4
09:31 7 4.5 84 1013.6
09:41 7 4.5 84 1013.6
09:52 7.1 4.8 85 1013.7
10:02 7.2 4.9 85 1013.6
10:12 7.4 5 85 1013.6
10:21 7.5 5.1 85 1013.8
10:32 7.7 5.2 84 1013.8
10:42 7.8 5.1 83 1013.6
10:52 8 5.1 82 1013.7
11:02 8.2 5.3 82 1013.8
11:12 8.6 5.5 81 1013.7
11:22 8.9 5.6 80 1013.9
11:32 9.1 5.7 79 1013.9
11:43 9.1 5.3 77 1013.8
11:52 9.1 5.3 77 1013.9
12:02 9.3 5.3 76 1013.8
12:12 9.5 5.1 74 1013.9
12:23 9.7 5.1 73 1013.9
12:33 9.7 5.1 73 1013.9
12:42 9.8 5.2 73 1014
12:53 9.7 5.1 73 1014.1
13:03 9.7 5.1 73 1014
13:13 9.6 5.2 74 1014
13:23 9.6 5 73 1013.9
13:33 9.6 5 73 1013.8
13:43 9.7 5.1 73 1013.9
13:53 9.7 5.1 73 1013.8
14:04 9.7 5.1 73 1013.8
14:14 9.7 4.9 72 1013.8
14:23 9.7 4.9 72 1013.8
14:33 9.9 5.1 72 1013.9
14:44 9.9 4.9 71 1013.8
14:54 9.9 5.1 72 1013.9
15:03 10 5.2 72 1013.9
15:14 10.3 5.3 71 1014
15:24 10.7 5.5 70 1014
15:34 10.8 5.3 69 1014
15:44 10.8 5.1 68 1014.1
15:54 10.7 5 68 1014
16:04 10.6 4.9 68 1014.1
16:14 10.5 4.9 68 1014.1
16:25 10.3 4.7 68 1014.1
16:35 10.2 4.6 68 1014.1
16:44 10.1 4.7 69 1014.1
16:54 9.9 4.5 69 1014.1
17:05 9.8 4.4 69 1014.1
17:15 9.7 4.3 69 1014.2
17:25 9.6 4.2 69 1014.3
17:35 9.5 4.1 69 1014.3

DAY STATISTIC

2019-02-19
TEMPERATURE
AVERAGE
8.7
HIGH
10.8
15:34
LOW
7.0
09:31
PRESSURE
AVERAGE
1012.6
HIGH
1014.3
17:25
LOW
1010.2
01:28
DEWPOINT
AVERAGE
4.4
HIGH
5.7
11:32
LOW
3.2
03:09
HUMIDITY
AVERAGE
75
HIGH
85
09:52
LOW
66
00:07
TEMPERATURE (°C)
LOW
7.0
HIGH
10.8
AVERAGE
8.7
PRESSURE (hpa)
LOW
1010.2
HIGH
1014.3
AVERAGE
1012.6
DEVICE